Weather History for Punta Gorda, FL

Change the Weather History Date:

Tuesday, January 1, 2013

  Actual Average Record
Temperature  
Mean Temperature 67 °F -  
Max Temperature 80 °F 71 °F 82 °F (1997)
Min Temperature 54 °F 49 °F 28 °F (2001)
Cooling Degree Days 2    
Growing Degree Days 17 (Base 50)    
Moisture  
Dew Point 57 °F    
Average Humidity 78    
Maximum Humidity 94    
Minimum Humidity 47    
Precipitation  
Precipitation 0.00 in - - ()
Sea Level Pressure  
Sea Level Pressure 30.13 in    
Wind  
Wind Speed 4 mph (SSE)    
Max Wind Speed 14 mph    
Max Gust Speed 16 mph    
Visibility 9 miles    
Events      
Averages and records for this station are not official NWS values.
T = Trace of Precipitation, MM = Missing Value Source: NWS Daily Summary

Daily Weather History Graph

Daily Weather History Graph

Search for Another Location

Airport:

Trip Planner

Search our weather history database for the weather conditions in past years. The results will help you decide how hot, cold, wet, or windy it might be!

Date:

Astronomy

Jan. 01, 2013 Rise Set
Actual Time 7:17 AM EST 5:46 PM EST
Civil Twilight 6:51 AM EST 6:11 PM EST
Nautical Twilight 6:22 AM EST 6:40 PM EST
Astronomical Twilight 5:54 AM EST 7:09 PM EST
Moon 9:50 PM EST (1/1) 9:51 AM EST (1/1)
Length of Visible Light 11h 20m
Length of Day
10h 29m
Waning Gibbous, 83% of the Moon is Illuminated
Jan 1
Waning Gibbous
Jan 4
Last Quarter
Jan 11
New
Jan 18
First Quarter
Jan 26
Full

Hourly Weather History & Observations

Time (EST) Temp. Heat Index Dew Point Humidity Pressure Visibility Wind Dir Wind Speed Gust Speed Precip Events Conditions
12:53 AM 57.0 °F - 55.0 °F 93% 30.23 in 10.0 mi Calm Calm - N/A   Overcast
1:53 AM 57.0 °F - 55.0 °F 93% 30.22 in 9.0 mi Calm Calm - N/A   Overcast
2:53 AM 59.0 °F - 57.0 °F 93% 30.21 in 10.0 mi SSE 3.5 mph - N/A   Overcast
3:53 AM 57.9 °F - 55.0 °F 90% 30.19 in 10.0 mi Calm Calm - N/A   Mostly Cloudy
4:53 AM 55.0 °F - 53.1 °F 93% 30.17 in 8.0 mi SE 4.6 mph - N/A   Partly Cloudy
5:53 AM 54.0 °F - 52.0 °F 93% 30.16 in 7.0 mi SSE 4.6 mph - N/A   Scattered Clouds
6:53 AM 54.0 °F - 52.0 °F 93% 30.17 in 10.0 mi East 3.5 mph - N/A   Clear
7:53 AM 55.0 °F - 53.1 °F 93% 30.18 in 9.0 mi ESE 5.8 mph - N/A   Clear
8:53 AM 64.0 °F - 57.9 °F 80% 30.18 in 10.0 mi Calm Calm - N/A   Clear
9:53 AM 71.1 °F - 57.9 °F 63% 30.18 in 10.0 mi South 8.1 mph - N/A   Clear
10:53 AM 77.0 °F - 57.0 °F 50% 30.18 in 10.0 mi South 13.8 mph - N/A   Clear
11:53 AM 78.1 °F - 57.0 °F 48% 30.15 in 10.0 mi SSW 13.8 mph - N/A   Scattered Clouds
12:53 PM 79.0 °F - 57.0 °F 47% 30.13 in 10.0 mi South 10.4 mph 16.1 mph N/A   Mostly Cloudy
1:53 PM 80.1 °F 80.6 °F 57.9 °F 47% 30.09 in 10.0 mi SSW 9.2 mph - N/A   Mostly Cloudy
2:53 PM 79.0 °F - 57.9 °F 48% 30.08 in 10.0 mi SSW 11.5 mph - N/A   Scattered Clouds
3:53 PM 79.0 °F - 57.9 °F 48% 30.07 in 10.0 mi South 6.9 mph - N/A   Mostly Cloudy
4:53 PM 75.9 °F - 59.0 °F 56% 30.07 in 10.0 mi SW 10.4 mph - N/A   Clear
5:53 PM 72.0 °F - 60.1 °F 66% 30.08 in 10.0 mi WSW 5.8 mph - N/A   Clear
6:53 PM 68.0 °F - 60.1 °F 76% 30.09 in 10.0 mi West 4.6 mph - N/A   Clear
7:53 PM 63.0 °F - 60.1 °F 90% 30.10 in 10.0 mi Calm Calm - N/A   Clear
8:53 PM 62.1 °F - 59.0 °F 90% 30.10 in 10.0 mi Calm Calm - N/A   Partly Cloudy
9:53 PM 60.1 °F - 57.9 °F 93% 30.10 in 10.0 mi SE 3.5 mph - N/A   Clear
10:53 PM 59.0 °F - 57.0 °F 93% 30.10 in 10.0 mi Calm Calm - N/A   Clear
11:26 PM 57.2 °F - 55.4 °F 94% 30.09 in 1.8 mi Calm Calm - N/A   Partly Cloudy
11:38 PM 57.2 °F - 55.4 °F 94% 30.09 in 4.0 mi East 3.5 mph - N/A   Partly Cloudy
11:53 PM 57.9 °F - 55.9 °F 93% 30.09 in 8.0 mi East 3.5 mph - N/A   Scattered Clouds